EW5857 Weather Reports


Display with metric or nautical units.
time (UTC)temp
F
wind
direction
speed
MPH
gust
MPH
rain 1hr
in
rain 24hr
in
rain mn
in
humidity
%
barometer
mb
20260506013444 50 347 4.0 11.0 0.00 0.00 0.00 85 1009.2
20260506012943 50 7 5.0 12.0 0.00 0.00 0.00 85 1009.2
20260506011943 50 319 4.0 10.0 0.00 0.00 0.00 84 1009.2
20260506011442 50 27 3.0 10.0 0.00 0.00 0.00 84 1009.3
20260506010942 50 24 3.0 10.0 0.00 0.00 0.00 84 1009.3
20260506010443 50 21 4.0 15.0 0.00 0.00 0.00 84 1009.3
20260506005944 50 32 5.0 15.0 0.00 0.00 0.00 84 1009.4
20260506005442 50 0 3.0 13.0 0.00 0.00 0.00 84 1009.4
20260506004941 50 39 4.0 13.0 0.00 0.00 0.00 84 1009.5
20260506004441 50 0 2.0 9.0 0.00 0.00 0.00 85 1009.4
20260506003941 50 20 4.0 7.0 0.00 0.00 0.00 85 1009.5
20260506003442 50 23 3.0 7.0 0.00 0.00 0.00 85 1009.5
20260506002942 50 0 3.0 7.0 0.00 0.00 0.00 85 1009.5
20260506002442 50 0 3.0 9.0 0.00 0.00 0.00 85 1009.5
20260506001943 50 0 5.0 10.0 0.00 0.00 0.00 85 1009.6
20260506001442 50 0 4.0 10.0 0.00 0.00 0.00 85 1009.6
20260506000943 50 27 4.0 10.0 0.00 0.00 0.00 86 1009.6
20260506000441 50 47 3.0 7.0 0.00 0.00 0.00 86 1009.6
20260505235438 50 305 3.0 13.0 0.00 0.00 0.00 85 1009.7
20260505234434 50 24 3.0 9.0 0.00 0.00 0.00 85 1009.8
20260505233932 50 28 4.0 11.0 0.00 0.00 0.00 85 1009.9
20260505233433 50 25 4.0 11.0 0.00 0.00 0.00 85 1009.9
20260505232432 50 354 5.0 10.0 0.00 0.00 0.00 85 1010.0
20260505231933 50 350 4.0 9.0 0.00 0.00 0.00 85 1010.0
20260505225934 50 37 3.0 9.0 0.00 0.00 0.00 85 1010.1
20260505225435 50 0 5.0 9.0 0.00 0.00 0.00 84 1010.1
20260505224934 50 38 4.0 9.0 0.00 0.00 0.00 84 1010.2
20260505224432 50 358 3.0 11.0 0.00 0.00 0.00 84 1010.2
20260505223932 50 25 5.0 11.0 0.00 0.00 0.00 84 1010.2
20260505223434 50 0 3.0 7.0 0.00 0.00 0.00 84 1010.4
20260505222932 50 52 4.0 10.0 0.00 0.00 0.00 84 1010.4
20260505222432 50 13 3.0 10.0 0.00 0.00 0.00 83 1010.3
20260505221932 50 45 3.0 9.0 0.00 0.00 0.00 83 1010.4
20260505221431 50 326 4.0 9.0 0.00 0.00 0.00 83 1010.5
20260505220934 50 47 2.0 9.0 0.00 0.00 0.00 83 1010.4
20260505220511 50 16 2.0 7.0 0.00 0.00 0.00 83 1010.4
20260505215933 50 7 3.0 9.0 0.00 0.00 0.00 82 1010.5
20260505215434 50 0 5.0 9.0 0.00 0.00 0.00 82 1010.5
20260505214932 50 3 5.0 10.0 0.00 0.00 0.00 82 1010.6
20260505214432 51 345 4.0 11.0 0.00 0.00 0.00 81 1010.6
20260505213932 51 338 3.0 11.0 0.00 0.00 0.00 81 1010.6
20260505213431 51 23 4.0 9.0 0.00 0.00 0.00 81 1010.6
20260505212930 51 16 4.0 10.0 0.00 0.00 0.00 81 1010.6
20260505212432 51 307 2.0 11.0 0.00 0.00 0.00 81 1010.6
20260505211932 51 0 4.0 11.0 0.00 0.00 0.00 81 1010.6
20260505210927 51 30 2.0 9.0 0.00 0.00 0.00 80 1010.6
20260505210425 51 0 4.0 9.0 0.00 0.00 0.00 80 1010.6
20260505205419 51 17 4.0 9.0 0.00 0.00 0.00 80 1010.6
20260505204921 51 37 3.0 10.0 0.00 0.00 0.00 80 1010.7
20260505203920 51 31 2.0 13.0 0.00 0.00 0.00 79 1010.7
20260505203421 51 25 4.0 13.0 0.00 0.00 0.00 79 1010.8
20260505202920 51 7 3.0 10.0 0.00 0.00 0.00 79 1010.8
20260505201916 51 21 5.0 9.0 0.00 0.00 0.00 78 1010.8
20260505201414 52 13 4.0 9.0 0.00 0.00 0.00 78 1010.7
20260505200913 52 28 2.0 9.0 0.00 0.00 0.00 78 1010.6
20260505200415 52 20 4.0 9.0 0.00 0.00 0.00 78 1010.6
20260505195911 52 28 4.0 10.0 0.00 0.00 0.00 78 1010.6
20260505195408 52 329 5.0 10.0 0.00 0.00 0.00 78 1010.5
20260505194908 52 355 4.0 10.0 0.00 0.00 0.00 78 1010.6
20260505194407 52 96 3.0 6.0 0.00 0.00 0.00 78 1010.6
20260505193907 52 10 3.0 6.0 0.00 0.00 0.00 78 1010.6
20260505193405 52 69 4.0 11.0 0.00 0.00 0.00 78 1010.5
20260505192906 52 16 4.0 11.0 0.00 0.00 0.00 77 1010.4
20260505191907 52 0 4.0 10.0 0.00 0.00 0.00 77 1010.3
20260505190907 53 45 5.0 11.0 0.00 0.00 0.00 76 1010.3
20260505190404 53 357 3.0 9.0 0.00 0.00 0.00 76 1010.2
20260505185405 53 28 2.0 9.0 0.00 0.00 0.00 76 1010.1
20260505184905 53 319 4.0 10.0 0.00 0.00 0.00 76 1010.1
20260505184404 53 324 4.0 10.0 0.00 0.00 0.00 75 1010.1
20260505183906 54 0 3.0 9.0 0.00 0.00 0.00 75 1010.2
20260505183406 54 7 3.0 9.0 0.00 0.00 0.00 76 1010.1
20260505182904 54 17 2.0 9.0 0.00 0.00 0.00 75 1010.1
20260505182404 54 14 5.0 10.0 0.00 0.00 0.00 75 1010.0
20260505181905 54 17 5.0 10.0 0.00 0.00 0.00 75 1010.0
20260505181404 55 21 3.0 10.0 0.00 0.00 0.00 75 1010.0
20260505180904 55 0 3.0 10.0 0.00 0.00 0.00 76 1010.0
20260505180405 55 38 4.0 10.0 0.00 0.00 0.00 76 1009.9
20260505175904 55 24 4.0 10.0 0.00 0.00 0.00 76 1009.9
20260505175404 55 338 5.0 14.0 0.00 0.00 0.00 76 1009.8
20260505174903 55 354 5.0 14.0 0.00 0.00 0.00 76 1009.7
20260505174405 56 23 5.0 11.0 0.00 0.00 0.00 75 1009.8
20260505173903 56 44 5.0 11.0 0.00 0.00 0.00 75 1009.7
20260505173405 56 23 4.0 11.0 0.00 0.00 0.00 74 1009.8
20260505171904 57 30 4.0 13.0 0.00 0.00 0.00 73 1010.0
20260505171404 57 0 6.0 12.0 0.00 0.00 0.00 73 1010.0
20260505170403 58 334 5.0 12.0 0.00 0.00 0.00 72 1009.9
20260505165404 58 25 4.0 11.0 0.00 0.00 0.00 72 1009.9
20260505164903 58 121 4.0 11.0 0.00 0.00 0.00 71 1010.0
20260505164408 58 51 6.0 10.0 0.00 0.00 0.00 71 1010.0
20260505163403 58 3 6.0 12.0 0.00 0.00 0.00 70 1009.9
20260505162903 58 25 5.0 14.0 0.00 0.00 0.00 71 1009.9
20260505162404 58 0 4.0 14.0 0.00 0.00 0.00 71 1010.0
20260505161904 58 0 4.0 12.0 0.00 0.00 0.00 71 1010.0
20260505161403 58 300 5.0 11.0 0.00 0.00 0.00 71 1010.0
20260505160903 58 62 5.0 12.0 0.00 0.00 0.00 71 1010.0
20260505160405 58 16 6.0 12.0 0.00 0.00 0.00 71 1010.1
20260505151858 59 23 4.0 12.0 0.00 0.00 0.00 68 1010.1
20260505151355 59 34 6.0 12.0 0.00 0.00 0.00 70 1010.3
20260505150855 58 48 3.0 12.0 0.00 0.00 0.00 69 1010.2
20260505140343 58 25 6.0 11.0 0.00 0.00 0.00 73 1010.6
20260505124833 57 14 5.0 12.0 0.00 0.00 0.00 79 1011.2
20260505124332 56 114 4.0 12.0 0.00 0.00 0.00 84 1011.3
20260505123833 54 21 5.0 12.0 0.00 0.00 0.00 83 1011.3
20260505123332 54 8 6.0 11.0 0.00 0.00 0.00 83 1011.3
20260505122843 53 16 5.0 9.0 0.00 0.00 0.00 84 1011.4
20260505122335 53 13 3.0 9.0 0.00 0.00 0.00 85 1011.4
20260505121843 53 14 4.0 12.0 0.00 0.00 0.00 84 1011.5
20260505121333 53 6 7.0 12.0 0.00 0.00 0.00 85 1011.5
20260505120833 53 21 5.0 10.0 0.00 0.00 0.00 85 1011.4
20260505120334 53 49 5.0 11.0 0.00 0.00 0.00 86 1011.4
20260505115833 53 51 4.0 11.0 0.00 0.00 0.00 86 1011.4
20260505115333 53 338 3.0 10.0 0.00 0.00 0.00 86 1011.5
20260505114832 53 24 3.0 10.0 0.00 0.00 0.00 86 1011.5
20260505114332 53 13 4.0 9.0 0.00 0.00 0.00 86 1011.6
20260505113833 53 133 3.0 7.0 0.00 0.00 0.00 85 1011.6
20260505113332 53 18 3.0 7.0 0.00 0.00 0.00 86 1011.6
20260505112832 53 348 4.0 9.0 0.00 0.00 0.00 86 1011.6
20260505112332 53 69 4.0 9.0 0.00 0.00 0.00 86 1011.7
20260505110833 53 92 4.0 9.0 0.00 0.00 0.00 86 1011.6
20260505110332 53 350 5.0 9.0 0.00 0.00 0.00 86 1011.7
20260505101832 52 54 3.0 7.0 0.00 0.00 0.00 88 1012.0
20260505101331 52 27 3.0 9.0 0.00 0.00 0.00 88 1012.0
20260505100832 52 41 5.0 9.0 0.00 0.00 0.00 89 1012.1
20260505100333 52 354 3.0 7.0 0.00 0.00 0.00 89 1012.0
20260505095830 51 37 3.0 11.0 0.00 0.00 0.00 90 1012.1
20260505095327 51 141 4.0 11.0 0.00 0.00 0.00 90 1012.1
20260505094827 51 25 4.0 10.0 0.00 0.00 0.00 90 1012.1
20260505094325 51 120 3.0 10.0 0.00 0.00 0.00 89 1012.1
20260505093823 51 0 4.0 10.0 0.00 0.00 0.00 90 1012.1
20260505092822 51 6 3.0 9.0 0.00 0.00 0.00 90 1012.2
20260505091822 51 8 4.0 11.0 0.00 0.00 0.00 90 1012.2
20260505090823 51 21 3.0 10.0 0.00 0.00 0.00 90 1012.1
20260505090322 51 16 4.0 10.0 0.00 0.00 0.00 90 1012.1
20260505085822 51 0 5.0 10.0 0.00 0.00 0.00 90 1012.1
20260505085322 51 6 6.0 10.0 0.00 0.00 0.00 90 1012.1
20260505084821 51 8 3.0 6.0 0.00 0.00 0.00 91 1012.0
20260505084322 51 8 2.0 10.0 0.00 0.00 0.00 91 1012.0
20260505083823 50 124 3.0 10.0 0.00 0.00 0.00 92 1012.0
20260505083322 50 13 2.0 7.0 0.00 0.00 0.00 92 1012.0
20260505082821 50 140 5.0 7.0 0.00 0.00 0.00 92 1012.0
20260505082320 50 25 1.0 4.0 0.00 0.00 0.00 92 1012.0
20260505081822 50 17 4.0 7.0 0.00 0.00 0.00 92 1012.0
20260505081323 50 17 4.0 7.0 0.00 0.00 0.00 93 1012.0
20260505080821 50 17 6.0 7.0 0.00 0.00 0.00 93 1012.0
20260505080323 49 21 4.0 11.0 0.00 0.00 0.00 93 1012.1
20260505075823 49 355 4.0 11.0 0.00 0.00 0.00 93 1012.1
20260505074320 49 30 5.0 6.0 0.00 0.00 0.00 94 1012.2
20260505073822 49 16 5.0 9.0 0.00 0.00 0.00 94 1012.2
20260505072820 49 0 4.0 11.0 0.00 0.00 0.00 95 1012.2
20260505071820 49 41 5.0 9.0 0.00 0.00 0.00 95 1012.2
20260505070821 49 0 5.0 12.0 0.00 0.00 0.00 95 1012.2
20260505070319 49 3 3.0 9.0 0.00 0.00 0.00 95 1012.2
20260505065819 49 0 4.0 9.0 0.00 0.00 0.00 95 1012.3
20260505065320 49 32 3.0 9.0 0.00 0.00 0.00 95 1012.4
20260505064818 49 350 4.0 9.0 0.00 0.00 0.00 95 1012.4
20260505064317 49 17 3.0 6.0 0.00 0.00 0.00 95 1012.5
20260505063819 49 18 3.0 6.0 0.00 0.00 0.00 95 1012.6
20260505062818 49 0 4.0 6.0 0.00 0.00 0.00 95 1012.6
20260505062320 49 345 3.0 9.0 0.00 0.00 0.00 95 1012.5
20260505061318 49 24 5.0 7.0 0.00 0.00 0.00 95 1012.6
20260505060819 49 25 3.0 7.0 0.00 0.00 0.00 95 1012.7
20260505060318 49 31 2.0 6.0 0.00 0.00 0.00 95 1012.8
20260505055318 49 0 2.0 7.0 0.00 0.00 0.00 95 1012.6
20260505054819 49 32 4.0 10.0 0.00 0.00 0.00 95 1012.5
20260505054318 49 21 5.0 10.0 0.00 0.00 0.00 95 1012.4
20260505053819 49 31 3.0 7.0 0.00 0.00 0.00 95 1012.4
20260505053330 49 28 3.0 9.0 0.00 0.00 0.00 95 1012.3
20260505052818 49 38 4.0 10.0 0.00 0.00 0.00 95 1012.3
20260505052319 49 10 3.0 10.0 0.00 0.00 0.00 94 1012.2
20260505051817 49 8 4.0 10.0 0.00 0.00 0.00 94 1012.1
20260505051317 49 21 4.0 9.0 0.00 0.00 0.00 94 1012.0
20260505050817 49 25 4.0 10.0 0.00 0.00 0.00 94 1012.0
20260505050331 49 329 4.0 10.0 0.00 0.00 0.00 94 1011.8
20260505041315 49 23 4.0 7.0 0.00 0.00 0.00 94 1012.1
20260505035815 49 333 3.0 7.0 0.00 0.00 0.00 94 1012.2
20260505035316 49 20 4.0 7.0 0.00 0.00 0.00 94 1012.2
20260505034817 49 17 3.0 10.0 0.00 0.00 0.00 94 1012.2
20260505034315 49 354 3.0 10.0 0.00 0.00 0.00 94 1012.2
20260505033815 49 357 4.0 6.0 0.00 0.00 0.00 94 1012.3
20260505033315 49 1 2.0 6.0 0.00 0.00 0.00 94 1012.3
20260505031814 50 13 2.0 6.0 0.00 0.00 0.00 94 1012.2
20260505031316 50 0 3.0 10.0 0.00 0.00 0.00 94 1012.2
20260505030815 50 0 2.0 10.0 0.00 0.00 0.00 94 1012.2
20260505030315 50 34 4.0 10.0 0.00 0.00 0.00 94 1012.2
20260505025814 50 0 5.0 10.0 0.00 0.00 0.00 94 1012.3
20260505025314 50 0 3.0 9.0 0.00 0.00 0.00 94 1012.2
20260505024814 50 0 3.0 9.0 0.00 0.00 0.00 94 1012.2
20260505024314 50 28 3.0 9.0 0.00 0.00 0.00 94 1012.2
20260505023813 50 0 4.0 9.0 0.00 0.00 0.00 94 1012.2
20260505023315 50 10 5.0 9.0 0.00 0.00 0.00 94 1012.1
20260505022826 50 68 5.0 9.0 0.00 0.00 0.00 93 1012.2
20260505021813 50 6 4.0 11.0 0.00 0.00 0.00 93 1012.3
20260505021314 50 20 5.0 10.0 0.00 0.00 0.00 93 1012.3
20260505020814 51 16 4.0 10.0 0.00 0.00 0.00 93 1012.3
20260505020312 51 21 4.0 10.0 0.00 0.00 0.00 93 1012.3
20260505015812 51 321 4.0 10.0 0.00 0.00 0.00 93 1012.4
20260505014814 51 355 4.0 7.0 0.00 0.00 0.00 93 1012.4
20260505014312 51 20 3.0 7.0 0.00 0.00 0.00 93 1012.4